Burbank, CA

10:11 PM PST on January 21, 2017 (GMT -0800)
Burbank-Glendale-Pasadena

Weather History for KBUR - January, 2012

Change the Weather History Date:

Thursday, January 12, 2012

  Actual Average Record
Temperature  
Mean Temperature 61 °F 55 °F  
Max Temperature 74 °F 68 °F 87 °F (2009)
Min Temperature 48 °F 42 °F 29 °F (1949)
Degree Days  
Heating Degree Days 4 10  
Month to date heating degree days 47 126  
Since 1 July heating degree days 656 693  
Cooling Degree Days 0 0  
Month to date cooling degree days 5 0  
Year to date cooling degree days 5 0  
Growing Degree Days 12 (Base 50)    
Moisture  
Dew Point 18 °F    
Average Humidity 25    
Maximum Humidity 43    
Minimum Humidity 6    
Precipitation  
Precipitation 0.00 in 0.11 in 2.40 in (1952)
Month to date precipitation 0.00 1.33  
Year to date precipitation 0.00 1.33  
Since 1 July precipitation 3.29  
Sea Level Pressure  
Sea Level Pressure 29.99 in    
Wind  
Wind Speed 2 mph (WNW)    
Max Wind Speed 13 mph    
Max Gust Speed 18 mph    
Visibility 10 miles    
Events      
T = Trace of Precipitation, MM = Missing Value Source: NWS Daily Summary

Daily Weather History Graph

Daily Weather History Graph

Search for Another Location

Airport or City:

Trip Planner

Search our weather history database for the weather conditions in past years. The results will help you decide how hot, cold, wet, or windy it might be!

Date:

Astronomy

Jan. 12, 2012 Rise Set
Actual Time 6:59 AM PST 5:03 PM PST
Civil Twilight 6:32 AM PST 5:31 PM PST
Nautical Twilight 6:01 AM PST 6:02 PM PST
Astronomical Twilight 5:31 AM PST 6:32 PM PST
Moon 9:01 PM PST (1/12) 8:57 AM PST (1/12)
Length of Visible Light 10h 58m
Length of Day
10h 04m
Waning Gibbous, 86% of the Moon is Illuminated
Jan 12
Waning Gibbous
Jan 16
Last Quarter
Jan 22
New
Jan 30
First Quarter
Feb 7
Full

Hourly Weather History & Observations

Time (PST) Temp. Dew Point Humidity Pressure Visibility Wind Dir Wind Speed Gust Speed Precip Events Conditions
12:53 AM 55.9 °F 26.1 °F 32% 29.98 in 10.0 mi NW 4.6 mph - N/A   Clear
1:53 AM 54.0 °F 28.0 °F 37% 29.99 in 10.0 mi Calm Calm - N/A   Clear
2:53 AM 55.0 °F 25.0 °F 31% 29.98 in 10.0 mi West 5.8 mph - N/A   Clear
3:53 AM 53.1 °F 30.0 °F 41% 29.97 in 10.0 mi Calm Calm - N/A   Clear
4:53 AM 52.0 °F 24.1 °F 34% 29.97 in 10.0 mi NW 3.5 mph - N/A   Clear
5:53 AM 50.0 °F 24.1 °F 36% 29.98 in 10.0 mi WSW 4.6 mph - N/A   Clear
6:53 AM 50.0 °F 24.1 °F 36% 30.00 in 10.0 mi Calm Calm - N/A   Clear
7:53 AM 50.0 °F 26.1 °F 39% 30.01 in 10.0 mi Calm Calm - N/A   Clear
8:53 AM 57.0 °F 25.0 °F 29% 30.03 in 10.0 mi Calm Calm - N/A   Clear
9:53 AM 62.1 °F 21.0 °F 21% 30.03 in 10.0 mi Calm Calm - N/A   Clear
10:53 AM 66.9 °F 21.9 °F 18% 30.01 in 10.0 mi Calm Calm - N/A   Clear
11:53 AM 70.0 °F 19.0 °F 14% 29.99 in 10.0 mi East 5.8 mph - N/A   Clear
12:53 PM 72.0 °F 17.1 °F 12% 29.96 in 10.0 mi Calm Calm - N/A   Clear
1:53 PM 73.0 °F 15.1 °F 11% 29.94 in 10.0 mi Variable 5.8 mph - N/A   Clear
2:53 PM 73.0 °F 15.1 °F 11% 29.94 in 10.0 mi SSW 5.8 mph - N/A   Clear
3:53 PM 72.0 °F 23.0 °F 16% 29.96 in 10.0 mi South 6.9 mph - N/A   Clear
4:53 PM 70.0 °F 26.1 °F 19% 29.96 in 10.0 mi Calm Calm - N/A   Clear
5:53 PM 68.0 °F 21.0 °F 17% 29.98 in 10.0 mi Calm Calm - N/A   Clear
6:53 PM 66.9 °F -5.1 °F 6% 29.99 in 10.0 mi NNE 11.5 mph 18.4 mph N/A   Clear
7:05 PM 66.2 °F -5.8 °F 5% 30.02 in 10.0 mi NE 5.8 mph - N/A   Clear
7:53 PM 63.0 °F 8.1 °F 11% 30.01 in 10.0 mi Calm Calm - N/A   Clear
8:53 PM 61.0 °F 7.0 °F 12% 30.03 in 10.0 mi Calm Calm - N/A   Clear
9:53 PM 55.0 °F 12.0 °F 18% 30.04 in 10.0 mi Calm Calm - N/A   Clear
10:53 PM 53.1 °F 10.9 °F 19% 30.04 in 10.0 mi Calm Calm - N/A   Clear
11:53 PM 48.9 °F 19.9 °F 32% 30.04 in 10.0 mi Calm Calm - N/A   Clear